contact:dominique.lefevre@mio.osupytheas.fr, maurice.libes@osupytheas.fr, didier.mallarino@osupytheas.fr
Project:EMSO http://www.emso-fr.org/EMSO-France
Depth: 2436.0 m
Title:EMSO Ligure Ouest : Data MII capteur MICROCAT
DateTime_Computer,Latitude,Longitude,Temperature,Conductivity,Pressure,DateTime_Instrument
DateTime_Computer,Latitude,Longitude,degC,S m-1,dbar,DateTime_Instrument
2019-11-18T00:02:44Z,42.805,6.029,13.2957,4.59961,2469.97,2019-11-18T02:03:12Z
2019-11-18T00:05:48Z,42.805,6.029,13.2957,4.59963,2469.984,2019-11-18T02:06:16Z
2019-11-18T00:08:51Z,42.805,6.029,13.2958,4.59961,2469.97,2019-11-18T02:09:19Z
2019-11-18T00:11:54Z,42.805,6.029,13.2956,4.59963,2469.993,2019-11-18T02:12:22Z
2019-11-18T00:14:57Z,42.805,6.029,13.2961,4.59960,2470.007,2019-11-18T02:15:25Z
2019-11-18T00:18:01Z,42.805,6.029,13.2959,4.59963,2469.97,2019-11-18T02:18:29Z
2019-11-18T00:21:04Z,42.805,6.029,13.2958,4.59962,2469.947,2019-11-18T02:21:32Z
2019-11-18T00:24:07Z,42.805,6.029,13.2959,4.59963,2469.96,2019-11-18T02:24:35Z
2019-11-18T00:27:10Z,42.805,6.029,13.2957,4.59960,2469.97,2019-11-18T02:27:38Z
2019-11-18T00:30:14Z,42.805,6.029,13.2957,4.59962,2469.97,2019-11-18T02:30:42Z
2019-11-18T00:33:17Z,42.805,6.029,13.2954,4.59961,2469.947,2019-11-18T02:33:45Z
2019-11-18T00:36:20Z,42.805,6.029,13.2959,4.59966,2469.96,2019-11-18T02:36:48Z
2019-11-18T00:39:23Z,42.805,6.029,13.2958,4.59964,2469.947,2019-11-18T02:39:51Z
2019-11-18T00:42:27Z,42.805,6.029,13.2961,4.59964,2469.947,2019-11-18T02:42:55Z
2019-11-18T00:45:30Z,42.805,6.029,13.2961,4.59962,2469.993,2019-11-18T02:45:58Z
2019-11-18T00:48:33Z,42.805,6.029,13.2959,4.59964,2469.984,2019-11-18T02:49:01Z
2019-11-18T00:51:36Z,42.805,6.029,13.2962,4.59964,2469.96,2019-11-18T02:52:04Z
2019-11-18T00:54:40Z,42.805,6.029,13.2952,4.59964,2469.984,2019-11-18T02:55:07Z
2019-11-18T00:57:43Z,42.805,6.029,13.2958,4.59964,2469.96,2019-11-18T02:58:11Z
2019-11-18T01:00:46Z,42.805,6.029,13.2959,4.59963,2469.993,2019-11-18T03:01:14Z
2019-11-18T01:03:49Z,42.805,6.029,13.2959,4.59964,2469.97,2019-11-18T03:04:17Z
2019-11-18T01:06:52Z,42.805,6.029,13.2953,4.59964,2469.937,2019-11-18T03:07:20Z
2019-11-18T01:09:56Z,42.805,6.029,13.2954,4.59966,2469.984,2019-11-18T03:10:24Z
2019-11-18T01:12:59Z,42.805,6.029,13.2956,4.59964,2469.97,2019-11-18T03:13:27Z
2019-11-18T01:16:02Z,42.805,6.029,13.2958,4.59961,2469.984,2019-11-18T03:16:30Z
2019-11-18T01:19:05Z,42.805,6.029,13.2960,4.59961,2469.97,2019-11-18T03:19:33Z
2019-11-18T01:22:09Z,42.805,6.029,13.2958,4.59962,2469.947,2019-11-18T03:22:37Z
2019-11-18T01:25:12Z,42.805,6.029,13.2958,4.59961,2469.97,2019-11-18T03:25:40Z
2019-11-18T01:28:15Z,42.805,6.029,13.2957,4.59961,2469.947,2019-11-18T03:28:43Z
2019-11-18T01:31:18Z,42.805,6.029,13.2961,4.59964,2469.937,2019-11-18T03:31:46Z
2019-11-18T01:34:22Z,42.805,6.029,13.2958,4.59964,2469.96,2019-11-18T03:34:50Z
2019-11-18T01:37:25Z,42.805,6.029,13.2958,4.59961,2469.947,2019-11-18T03:37:53Z
2019-11-18T01:40:28Z,42.805,6.029,13.2958,4.59967,2469.947,2019-11-18T03:40:56Z
2019-11-18T01:43:31Z,42.805,6.029,13.2956,4.59966,2469.9,2019-11-18T03:43:59Z
2019-11-18T01:46:34Z,42.805,6.029,13.2959,4.59966,2469.984,2019-11-18T03:47:02Z
2019-11-18T01:49:38Z,42.805,6.029,13.2961,4.59964,2469.937,2019-11-18T03:50:06Z
2019-11-18T01:52:41Z,42.805,6.029,13.2957,4.59963,2469.947,2019-11-18T03:53:09Z
2019-11-18T01:55:44Z,42.805,6.029,13.2958,4.59964,2469.923,2019-11-18T03:56:12Z
2019-11-18T01:58:47Z,42.805,6.029,13.2958,4.59962,2469.923,2019-11-18T03:59:15Z
2019-11-18T02:01:51Z,42.805,6.029,13.2958,4.59967,2469.9,2019-11-18T04:02:18Z
2019-11-18T02:04:54Z,42.805,6.029,13.2958,4.59964,2469.923,2019-11-18T04:05:22Z
2019-11-18T02:07:57Z,42.805,6.029,13.2956,4.59964,2469.923,2019-11-18T04:08:25Z
2019-11-18T02:11:00Z,42.805,6.029,13.2954,4.59964,2469.923,2019-11-18T04:11:28Z
2019-11-18T02:14:03Z,42.805,6.029,13.2958,4.59964,2469.923,2019-11-18T04:14:31Z
2019-11-18T02:17:07Z,42.805,6.029,13.2958,4.59962,2469.9,2019-11-18T04:17:35Z
2019-11-18T02:20:10Z,42.805,6.029,13.2964,4.59961,2469.923,2019-11-18T04:20:38Z
2019-11-18T02:23:13Z,42.805,6.029,13.2961,4.59960,2469.914,2019-11-18T04:23:41Z
2019-11-18T02:26:16Z,42.805,6.029,13.2961,4.59961,2469.923,2019-11-18T04:26:44Z
2019-11-18T02:29:20Z,42.805,6.029,13.2960,4.59961,2469.937,2019-11-18T04:29:48Z
2019-11-18T02:32:23Z,42.805,6.029,13.2958,4.59963,2469.96,2019-11-18T04:32:51Z
2019-11-18T02:35:26Z,42.805,6.029,13.2954,4.59962,2469.937,2019-11-18T04:35:54Z
2019-11-18T02:38:30Z,42.805,6.029,13.2956,4.59961,2469.923,2019-11-18T04:38:58Z
2019-11-18T02:41:33Z,42.805,6.029,13.2959,4.59962,2469.914,2019-11-18T04:42:01Z
2019-11-18T02:44:36Z,42.805,6.029,13.2953,4.59961,2469.9,2019-11-18T04:45:04Z
2019-11-18T02:47:39Z,42.805,6.029,13.2956,4.59961,2469.937,2019-11-18T04:48:07Z
2019-11-18T02:50:43Z,42.805,6.029,13.2959,4.59962,2469.923,2019-11-18T04:51:11Z
2019-11-18T02:53:46Z,42.805,6.029,13.2958,4.59961,2469.923,2019-11-18T04:54:14Z
2019-11-18T02:56:49Z,42.805,6.029,13.2956,4.59963,2469.9,2019-11-18T04:57:17Z
2019-11-18T02:59:53Z,42.805,6.029,13.2956,4.59964,2469.947,2019-11-18T05:00:21Z
2019-11-18T03:02:56Z,42.805,6.029,13.2960,4.59961,2469.937,2019-11-18T05:03:24Z
2019-11-18T03:05:59Z,42.805,6.029,13.2960,4.59965,2469.923,2019-11-18T05:06:27Z
2019-11-18T03:09:02Z,42.805,6.029,13.2959,4.59964,2469.923,2019-11-18T05:09:30Z
2019-11-18T03:12:06Z,42.805,6.029,13.2958,4.59961,2469.876,2019-11-18T05:12:34Z
2019-11-18T03:15:09Z,42.805,6.029,13.2956,4.59961,2469.923,2019-11-18T05:15:37Z
2019-11-18T03:18:12Z,42.805,6.029,13.2954,4.59961,2469.9,2019-11-18T05:18:40Z
2019-11-18T03:21:16Z,42.805,6.029,13.2958,4.59961,2469.914,2019-11-18T05:21:44Z
2019-11-18T03:24:19Z,42.805,6.029,13.2958,4.59971,2469.937,2019-11-18T05:24:47Z
2019-11-18T03:27:22Z,42.805,6.029,13.2958,4.59965,2469.937,2019-11-18T05:27:50Z
2019-11-18T03:30:25Z,42.805,6.029,13.2958,4.59961,2469.876,2019-11-18T05:30:53Z
2019-11-18T03:33:29Z,42.805,6.029,13.2954,4.59964,2469.923,2019-11-18T05:33:57Z
2019-11-18T03:36:32Z,42.805,6.029,13.2957,4.59964,2469.9,2019-11-18T05:37:00Z
2019-11-18T03:39:35Z,42.805,6.029,13.2957,4.59964,2469.923,2019-11-18T05:40:03Z
2019-11-18T03:42:38Z,42.805,6.029,13.2959,4.59966,2469.923,2019-11-18T05:43:06Z
2019-11-18T03:45:41Z,42.805,6.029,13.2958,4.59969,2469.89,2019-11-18T05:46:09Z
2019-11-18T03:48:45Z,42.805,6.029,13.2957,4.59961,2469.923,2019-11-18T05:49:13Z
2019-11-18T03:51:48Z,42.805,6.029,13.2957,4.59960,2469.9,2019-11-18T05:52:16Z
2019-11-18T03:54:51Z,42.805,6.029,13.2955,4.59961,2469.9,2019-11-18T05:55:19Z
2019-11-18T03:57:55Z,42.805,6.029,13.2955,4.59963,2469.923,2019-11-18T05:58:23Z
2019-11-18T04:00:58Z,42.805,6.029,13.2958,4.59966,2469.937,2019-11-18T06:01:26Z
2019-11-18T04:04:02Z,42.805,6.029,13.2957,4.59962,2469.89,2019-11-18T06:04:30Z
2019-11-18T04:07:05Z,42.805,6.029,13.2956,4.59966,2469.9,2019-11-18T06:07:33Z
2019-11-18T04:10:08Z,42.805,6.029,13.2957,4.59963,2469.914,2019-11-18T06:10:36Z
2019-11-18T04:13:11Z,42.805,6.029,13.2953,4.59963,2469.89,2019-11-18T06:13:39Z
2019-11-18T04:16:15Z,42.805,6.029,13.2956,4.59961,2469.937,2019-11-18T06:16:43Z
2019-11-18T04:19:18Z,42.805,6.029,13.2958,4.59962,2469.9,2019-11-18T06:19:46Z
2019-11-18T04:22:21Z,42.805,6.029,13.2957,4.59964,2469.9,2019-11-18T06:22:49Z
2019-11-18T04:25:24Z,42.805,6.029,13.2955,4.59967,2469.914,2019-11-18T06:25:52Z
2019-11-18T04:28:28Z,42.805,6.029,13.2957,4.59964,2469.9,2019-11-18T06:28:56Z
2019-11-18T04:31:31Z,42.805,6.029,13.2957,4.59963,2469.923,2019-11-18T06:31:59Z
2019-11-18T04:34:34Z,42.805,6.029,13.2958,4.59963,2469.914,2019-11-18T06:35:02Z
2019-11-18T04:37:37Z,42.805,6.029,13.2961,4.59964,2469.9,2019-11-18T06:38:05Z
2019-11-18T04:40:40Z,42.805,6.029,13.2957,4.59968,2469.914,2019-11-18T06:41:08Z
2019-11-18T04:43:44Z,42.805,6.029,13.2956,4.59964,2469.914,2019-11-18T06:44:12Z
2019-11-18T04:46:47Z,42.805,6.029,13.2959,4.59966,2469.923,2019-11-18T06:47:15Z
2019-11-18T04:49:50Z,42.805,6.029,13.2958,4.59966,2469.853,2019-11-18T06:50:18Z
2019-11-18T04:52:54Z,42.805,6.029,13.2957,4.59964,2469.9,2019-11-18T06:53:22Z
2019-11-18T04:55:57Z,42.805,6.029,13.2958,4.59962,2469.9,2019-11-18T06:56:25Z
2019-11-18T04:59:00Z,42.805,6.029,13.2957,4.59962,2469.89,2019-11-18T06:59:28Z
2019-11-18T05:02:03Z,42.805,6.029,13.2961,4.59965,2469.9,2019-11-18T07:02:31Z
2019-11-18T05:05:07Z,42.805,6.029,13.2960,4.59968,2469.9,2019-11-18T07:05:35Z
2019-11-18T05:08:10Z,42.805,6.029,13.2957,4.59964,2469.9,2019-11-18T07:08:38Z
2019-11-18T05:11:13Z,42.805,6.029,13.2958,4.59964,2469.923,2019-11-18T07:11:41Z
2019-11-18T05:14:16Z,42.805,6.029,13.2961,4.59967,2469.876,2019-11-18T07:14:44Z
2019-11-18T05:17:20Z,42.805,6.029,13.2959,4.59966,2469.9,2019-11-18T07:17:48Z
2019-11-18T05:20:23Z,42.805,6.029,13.2954,4.59967,2469.914,2019-11-18T07:20:51Z
2019-11-18T05:23:26Z,42.805,6.029,13.2961,4.59965,2469.96,2019-11-18T07:23:54Z
2019-11-18T05:26:29Z,42.805,6.029,13.2958,4.59972,2469.937,2019-11-18T07:26:57Z
2019-11-18T05:29:33Z,42.805,6.029,13.2958,4.59970,2469.937,2019-11-18T07:30:01Z
2019-11-18T05:32:36Z,42.805,6.029,13.2959,4.59968,2469.937,2019-11-18T07:33:04Z
2019-11-18T05:35:39Z,42.805,6.029,13.2961,4.59971,2469.937,2019-11-18T07:36:07Z
2019-11-18T05:38:42Z,42.805,6.029,13.2957,4.59967,2469.914,2019-11-18T07:39:10Z
2019-11-18T05:41:45Z,42.805,6.029,13.2959,4.59972,2469.97,2019-11-18T07:42:13Z
2019-11-18T05:44:49Z,42.805,6.029,13.2961,4.59966,2469.914,2019-11-18T07:45:17Z
2019-11-18T05:47:52Z,42.805,6.029,13.2961,4.59976,2469.937,2019-11-18T07:48:20Z
2019-11-18T05:50:55Z,42.805,6.029,13.2958,4.59967,2469.923,2019-11-18T07:51:23Z
2019-11-18T05:53:59Z,42.805,6.029,13.2958,4.59966,2469.96,2019-11-18T07:54:27Z
2019-11-18T05:57:02Z,42.805,6.029,13.2959,4.59969,2469.9,2019-11-18T07:57:30Z
2019-11-18T06:00:05Z,42.805,6.029,13.2955,4.59964,2469.947,2019-11-18T08:00:33Z
2019-11-18T06:03:08Z,42.805,6.029,13.2961,4.59969,2469.9,2019-11-18T08:03:36Z
2019-11-18T06:06:11Z,42.805,6.029,13.2957,4.59966,2469.9,2019-11-18T08:06:39Z
2019-11-18T06:09:15Z,42.805,6.029,13.2955,4.59973,2469.923,2019-11-18T08:09:43Z
2019-11-18T06:12:18Z,42.805,6.029,13.2955,4.59964,2469.96,2019-11-18T08:12:46Z
2019-11-18T06:15:21Z,42.805,6.029,13.2957,4.59965,2469.96,2019-11-18T08:15:49Z
2019-11-18T06:18:24Z,42.805,6.029,13.2961,4.59964,2469.947,2019-11-18T08:18:52Z
2019-11-18T06:21:28Z,42.805,6.029,13.2961,4.59966,2469.9,2019-11-18T08:21:56Z
2019-11-18T06:24:31Z,42.805,6.029,13.2958,4.59966,2469.923,2019-11-18T08:24:59Z
2019-11-18T06:27:34Z,42.805,6.029,13.2957,4.59967,2469.97,2019-11-18T08:28:02Z
2019-11-18T06:30:37Z,42.805,6.029,13.2960,4.59966,2469.947,2019-11-18T08:31:05Z
2019-11-18T06:33:40Z,42.805,6.029,13.2961,4.59963,2469.947,2019-11-18T08:34:08Z
2019-11-18T06:36:44Z,42.805,6.029,13.2957,4.59964,2469.923,2019-11-18T08:37:12Z
2019-11-18T06:39:47Z,42.805,6.029,13.2958,4.59962,2469.984,2019-11-18T08:40:15Z
2019-11-18T06:42:50Z,42.805,6.029,13.2958,4.59966,2469.947,2019-11-18T08:43:18Z
2019-11-18T06:45:53Z,42.805,6.029,13.2954,4.59963,2469.96,2019-11-18T08:46:21Z
2019-11-18T06:48:57Z,42.805,6.029,13.2958,4.59963,2469.96,2019-11-18T08:49:25Z
2019-11-18T06:52:00Z,42.805,6.029,13.2956,4.59964,2469.97,2019-11-18T08:52:28Z
2019-11-18T06:55:03Z,42.805,6.029,13.2958,4.59967,2469.97,2019-11-18T08:55:31Z
2019-11-18T06:58:06Z,42.805,6.029,13.2961,4.59966,2469.984,2019-11-18T08:58:34Z
2019-11-18T07:01:10Z,42.805,6.029,13.2955,4.59964,2469.947,2019-11-18T09:01:38Z
2019-11-18T07:04:13Z,42.805,6.029,13.2958,4.59964,2469.993,2019-11-18T09:04:41Z
2019-11-18T07:07:16Z,42.805,6.029,13.2962,4.59966,2469.97,2019-11-18T09:07:44Z
2019-11-18T07:10:19Z,42.805,6.029,13.2957,4.59963,2469.96,2019-11-18T09:10:47Z
2019-11-18T07:13:23Z,42.805,6.029,13.2957,4.59964,2470.007,2019-11-18T09:13:51Z
2019-11-18T07:16:26Z,42.805,6.029,13.2957,4.59961,2470.007,2019-11-18T09:16:54Z
2019-11-18T07:19:29Z,42.805,6.029,13.2957,4.59964,2470.007,2019-11-18T09:19:57Z
2019-11-18T07:22:32Z,42.805,6.029,13.2962,4.59963,2469.97,2019-11-18T09:23:00Z
2019-11-18T07:25:35Z,42.805,6.029,13.2957,4.59966,2469.993,2019-11-18T09:26:03Z
2019-11-18T07:28:39Z,42.805,6.029,13.2957,4.59964,2470.007,2019-11-18T09:29:07Z
2019-11-18T07:31:42Z,42.805,6.029,13.2957,4.59964,2469.993,2019-11-18T09:32:10Z
2019-11-18T07:34:45Z,42.805,6.029,13.2958,4.59963,2470.03,2019-11-18T09:35:13Z
2019-11-18T07:37:49Z,42.805,6.029,13.2961,4.59968,2470.017,2019-11-18T09:38:17Z
2019-11-18T07:40:52Z,42.805,6.029,13.2958,4.59961,2470.007,2019-11-18T09:41:20Z
2019-11-18T07:43:55Z,42.805,6.029,13.2958,4.59962,2469.993,2019-11-18T09:44:23Z
2019-11-18T07:46:58Z,42.805,6.029,13.2957,4.59964,2469.97,2019-11-18T09:47:26Z
2019-11-18T07:50:02Z,42.805,6.029,13.2957,4.59966,2470.017,2019-11-18T09:50:30Z
2019-11-18T07:53:05Z,42.805,6.029,13.2956,4.59965,2470.03,2019-11-18T09:53:33Z
2019-11-18T07:56:08Z,42.805,6.029,13.2957,4.59967,2470.017,2019-11-18T09:56:36Z
2019-11-18T07:59:11Z,42.805,6.029,13.2956,4.59962,2470.007,2019-11-18T09:59:39Z
2019-11-18T08:02:15Z,42.805,6.029,13.2956,4.59965,2470.007,2019-11-18T10:02:43Z
2019-11-18T08:05:18Z,42.805,6.029,13.2957,4.59962,2470.04,2019-11-18T10:05:46Z
2019-11-18T08:08:21Z,42.805,6.029,13.2958,4.59968,2470.03,2019-11-18T10:08:49Z
2019-11-18T08:11:24Z,42.805,6.029,13.2957,4.59971,2469.993,2019-11-18T10:11:52Z
2019-11-18T08:14:28Z,42.805,6.029,13.2958,4.59964,2470.03,2019-11-18T10:14:56Z
2019-11-18T08:17:31Z,42.805,6.029,13.2958,4.59964,2470.063,2019-11-18T10:17:59Z
2019-11-18T08:20:34Z,42.805,6.029,13.2959,4.59964,2470.017,2019-11-18T10:21:02Z
2019-11-18T08:23:37Z,42.805,6.029,13.2957,4.59963,2470.03,2019-11-18T10:24:05Z
2019-11-18T08:26:41Z,42.805,6.029,13.2957,4.59963,2470.063,2019-11-18T10:27:09Z
2019-11-18T08:29:44Z,42.805,6.029,13.2954,4.59966,2470.04,2019-11-18T10:30:12Z
2019-11-18T08:32:47Z,42.805,6.029,13.2960,4.59963,2470.03,2019-11-18T10:33:15Z
2019-11-18T08:35:50Z,42.805,6.029,13.2958,4.59964,2470.053,2019-11-18T10:36:18Z
2019-11-18T08:38:54Z,42.805,6.029,13.2959,4.59966,2470.017,2019-11-18T10:39:22Z
2019-11-18T08:41:57Z,42.805,6.029,13.2957,4.59968,2470.063,2019-11-18T10:42:25Z
2019-11-18T08:45:00Z,42.805,6.029,13.2957,4.59971,2470.077,2019-11-18T10:45:28Z
2019-11-18T08:48:03Z,42.805,6.029,13.2957,4.59966,2470.04,2019-11-18T10:48:31Z
2019-11-18T08:51:07Z,42.805,6.029,13.2957,4.59967,2470.04,2019-11-18T10:51:35Z
2019-11-18T08:54:10Z,42.805,6.029,13.2957,4.59964,2470.087,2019-11-18T10:54:38Z
2019-11-18T08:57:13Z,42.805,6.029,13.2961,4.59967,2470.1,2019-11-18T10:57:41Z
2019-11-18T09:00:16Z,42.805,6.029,13.2954,4.59964,2470.04,2019-11-18T11:00:44Z
2019-11-18T09:03:20Z,42.805,6.029,13.2961,4.59963,2470.04,2019-11-18T11:03:48Z
2019-11-18T09:06:23Z,42.805,6.029,13.2957,4.59966,2470.087,2019-11-18T11:06:51Z
2019-11-18T09:09:26Z,42.805,6.029,13.2953,4.59973,2470.063,2019-11-18T11:09:54Z
2019-11-18T09:12:29Z,42.805,6.029,13.2958,4.59966,2470.063,2019-11-18T11:12:57Z
2019-11-18T09:15:33Z,42.805,6.029,13.2958,4.59975,2470.063,2019-11-18T11:16:01Z
2019-11-18T09:18:36Z,42.805,6.029,13.2958,4.59969,2470.063,2019-11-18T11:19:04Z
2019-11-18T09:21:39Z,42.805,6.029,13.2956,4.59974,2470.124,2019-11-18T11:22:07Z
2019-11-18T09:24:42Z,42.805,6.029,13.2953,4.59966,2470.063,2019-11-18T11:25:10Z
2019-11-18T09:27:45Z,42.805,6.029,13.2955,4.59966,2470.11,2019-11-18T11:28:13Z
2019-11-18T09:30:49Z,42.805,6.029,13.2958,4.59967,2470.1,2019-11-18T11:31:17Z
2019-11-18T09:33:52Z,42.805,6.029,13.2957,4.59966,2470.1,2019-11-18T11:34:20Z
2019-11-18T09:36:55Z,42.805,6.029,13.2953,4.59966,2470.124,2019-11-18T11:37:23Z
2019-11-18T09:39:58Z,42.805,6.029,13.2957,4.59968,2470.124,2019-11-18T11:40:26Z
2019-11-18T09:43:02Z,42.805,6.029,13.2954,4.59971,2470.124,2019-11-18T11:43:30Z
2019-11-18T09:46:05Z,42.805,6.029,13.2959,4.59976,2470.087,2019-11-18T11:46:33Z
2019-11-18T09:49:08Z,42.805,6.029,13.2958,4.59970,2470.124,2019-11-18T11:49:36Z
2019-11-18T09:52:11Z,42.805,6.029,13.2961,4.59977,2470.11,2019-11-18T11:52:39Z
2019-11-18T09:55:15Z,42.805,6.029,13.2956,4.59970,2470.087,2019-11-18T11:55:43Z
2019-11-18T09:58:18Z,42.805,6.029,13.2953,4.59969,2470.124,2019-11-18T11:58:46Z
2019-11-18T10:01:21Z,42.805,6.029,13.2957,4.59976,2470.087,2019-11-18T12:01:49Z
2019-11-18T10:04:25Z,42.805,6.029,13.2962,4.59976,2470.077,2019-11-18T12:04:53Z
2019-11-18T10:07:28Z,42.805,6.029,13.2956,4.59974,2470.147,2019-11-18T12:07:56Z
2019-11-18T10:10:31Z,42.805,6.029,13.2955,4.59973,2470.11,2019-11-18T12:10:59Z
2019-11-18T10:13:34Z,42.805,6.029,13.2957,4.59981,2470.133,2019-11-18T12:14:02Z
2019-11-18T10:16:37Z,42.805,6.029,13.2958,4.59975,2470.087,2019-11-18T12:17:05Z
2019-11-18T10:19:41Z,42.805,6.029,13.2958,4.59981,2470.11,2019-11-18T12:20:09Z
2019-11-18T10:22:44Z,42.805,6.029,13.2954,4.59988,2470.124,2019-11-18T12:23:12Z
2019-11-18T10:25:47Z,42.805,6.029,13.2957,4.59999,2470.11,2019-11-18T12:26:15Z
2019-11-18T10:28:51Z,42.805,6.029,13.2962,4.60002,2470.124,2019-11-18T12:29:19Z
2019-11-18T10:31:54Z,42.805,6.029,13.2958,4.59999,2470.133,2019-11-18T12:32:22Z
2019-11-18T10:34:57Z,42.805,6.029,13.2963,4.60000,2470.124,2019-11-18T12:35:25Z
2019-11-18T10:38:00Z,42.805,6.029,13.2957,4.60006,2470.124,2019-11-18T12:38:28Z
2019-11-18T10:41:03Z,42.805,6.029,13.2961,4.60014,2470.124,2019-11-18T12:41:31Z
2019-11-18T10:44:07Z,42.805,6.029,13.2970,4.60013,2470.133,2019-11-18T12:44:35Z
2019-11-18T10:47:10Z,42.805,6.029,13.3004,4.60044,2470.133,2019-11-18T12:47:38Z
2019-11-18T10:50:13Z,42.805,6.029,13.2965,4.60031,2470.124,2019-11-18T12:50:41Z
2019-11-18T10:53:16Z,42.805,6.029,13.2963,4.60003,2470.147,2019-11-18T12:53:44Z
2019-11-18T10:56:20Z,42.805,6.029,13.3021,4.59990,2470.133,2019-11-18T12:56:48Z
2019-11-18T10:59:23Z,42.805,6.029,13.3025,4.60004,2470.147,2019-11-18T12:59:51Z
2019-11-18T11:02:27Z,42.805,6.029,13.3028,4.60009,2470.124,2019-11-18T13:02:55Z
2019-11-18T11:05:30Z,42.805,6.029,13.3019,4.59998,2470.124,2019-11-18T13:05:58Z
2019-11-18T11:08:33Z,42.805,6.029,13.3015,4.60001,2470.133,2019-11-18T13:09:01Z
2019-11-18T11:11:36Z,42.805,6.029,13.3004,4.59999,2470.133,2019-11-18T13:12:04Z
2019-11-18T11:14:40Z,42.805,6.029,13.3000,4.60003,2470.147,2019-11-18T13:15:08Z
2019-11-18T11:17:43Z,42.805,6.029,13.3017,4.60003,2470.133,2019-11-18T13:18:11Z
2019-11-18T11:20:46Z,42.805,6.029,13.3006,4.59989,2470.171,2019-11-18T13:21:14Z
2019-11-18T11:23:49Z,42.805,6.029,13.3034,4.59988,2470.124,2019-11-18T13:24:17Z
2019-11-18T11:26:52Z,42.805,6.029,13.2994,4.60003,2470.11,2019-11-18T13:27:20Z
2019-11-18T11:29:56Z,42.805,6.029,13.3029,4.60024,2470.11,2019-11-18T13:30:24Z
2019-11-18T11:32:59Z,42.805,6.029,13.3006,4.59998,2470.11,2019-11-18T13:33:27Z
2019-11-18T11:36:02Z,42.805,6.029,13.3002,4.60014,2470.11,2019-11-18T13:36:30Z
2019-11-18T11:39:05Z,42.805,6.029,13.3015,4.60029,2470.147,2019-11-18T13:39:33Z
2019-11-18T11:42:09Z,42.805,6.029,13.3019,4.60012,2470.124,2019-11-18T13:42:37Z
2019-11-18T11:45:12Z,42.805,6.029,13.3014,4.59997,2470.11,2019-11-18T13:45:40Z
2019-11-18T11:48:15Z,42.805,6.029,13.3015,4.60001,2470.1,2019-11-18T13:48:43Z
2019-11-18T11:51:18Z,42.805,6.029,13.3009,4.60001,2470.1,2019-11-18T13:51:46Z
2019-11-18T11:54:22Z,42.805,6.029,13.3011,4.59997,2470.1,2019-11-18T13:54:50Z
2019-11-18T11:57:25Z,42.805,6.029,13.3005,4.60005,2470.087,2019-11-18T13:57:53Z
2019-11-18T12:00:28Z,42.805,6.029,13.3011,4.60001,2470.124,2019-11-18T14:00:56Z
2019-11-18T12:03:31Z,42.805,6.029,13.3022,4.60002,2470.087,2019-11-18T14:03:59Z
2019-11-18T12:06:35Z,42.805,6.029,13.3037,4.60002,2470.087,2019-11-18T14:07:03Z
2019-11-18T12:09:38Z,42.805,6.029,13.3020,4.60001,2470.087,2019-11-18T14:10:06Z
2019-11-18T12:12:41Z,42.805,6.029,13.3010,4.60001,2470.11,2019-11-18T14:13:09Z
2019-11-18T12:15:44Z,42.805,6.029,13.3031,4.60004,2470.11,2019-11-18T14:16:12Z
2019-11-18T12:18:47Z,42.805,6.029,13.3013,4.59979,2470.133,2019-11-18T14:19:15Z
2019-11-18T12:21:51Z,42.805,6.029,13.3007,4.59992,2470.11,2019-11-18T14:22:19Z
2019-11-18T12:24:54Z,42.805,6.029,13.2996,4.59999,2470.147,2019-11-18T14:25:22Z
2019-11-18T12:27:57Z,42.805,6.029,13.3003,4.60001,2470.124,2019-11-18T14:28:25Z
2019-11-18T12:31:00Z,42.805,6.029,13.2994,4.59984,2470.124,2019-11-18T14:31:28Z
2019-11-18T12:34:04Z,42.805,6.029,13.2991,4.60001,2470.11,2019-11-18T14:34:32Z
2019-11-18T12:37:07Z,42.805,6.029,13.3007,4.60022,2470.11,2019-11-18T14:37:35Z
2019-11-18T12:40:11Z,42.805,6.029,13.3006,4.59999,2470.1,2019-11-18T14:40:39Z
2019-11-18T12:43:14Z,42.805,6.029,13.3000,4.59999,2470.087,2019-11-18T14:43:42Z
2019-11-18T12:46:17Z,42.805,6.029,13.3011,4.59996,2470.087,2019-11-18T14:46:45Z
2019-11-18T12:49:21Z,42.805,6.029,13.3001,4.59994,2470.147,2019-11-18T14:49:49Z
2019-11-18T12:52:24Z,42.805,6.029,13.3002,4.59994,2470.1,2019-11-18T14:52:52Z
2019-11-18T12:55:27Z,42.805,6.029,13.3003,4.59997,2470.124,2019-11-18T14:55:55Z
2019-11-18T12:58:30Z,42.805,6.029,13.3004,4.59990,2470.11,2019-11-18T14:58:58Z
2019-11-18T13:01:34Z,42.805,6.029,13.3000,4.59990,2470.087,2019-11-18T15:02:02Z
2019-11-18T13:04:37Z,42.805,6.029,13.2995,4.59982,2470.1,2019-11-18T15:05:05Z
2019-11-18T13:07:40Z,42.805,6.029,13.2995,4.59986,2470.124,2019-11-18T15:08:08Z
2019-11-18T13:10:43Z,42.805,6.029,13.3000,4.59997,2470.087,2019-11-18T15:11:11Z
2019-11-18T13:13:47Z,42.805,6.029,13.2990,4.59988,2470.087,2019-11-18T15:14:15Z
2019-11-18T13:16:50Z,42.805,6.029,13.2999,4.59986,2470.087,2019-11-18T15:17:18Z
2019-11-18T13:19:53Z,42.805,6.029,13.3022,4.59997,2470.1,2019-11-18T15:20:21Z
2019-11-18T13:22:56Z,42.805,6.029,13.2998,4.59990,2470.077,2019-11-18T15:23:24Z
2019-11-18T13:26:00Z,42.805,6.029,13.2994,4.59993,2470.11,2019-11-18T15:26:28Z
2019-11-18T13:29:03Z,42.805,6.029,13.2993,4.59988,2470.1,2019-11-18T15:29:31Z
2019-11-18T13:32:06Z,42.805,6.029,13.2997,4.59990,2470.124,2019-11-18T15:32:34Z
2019-11-18T13:35:09Z,42.805,6.029,13.2995,4.59986,2470.063,2019-11-18T15:35:37Z
2019-11-18T13:38:13Z,42.805,6.029,13.3011,4.59982,2470.1,2019-11-18T15:38:41Z
2019-11-18T13:41:16Z,42.805,6.029,13.2993,4.59989,2470.11,2019-11-18T15:41:44Z
2019-11-18T13:44:19Z,42.805,6.029,13.3001,4.60001,2470.11,2019-11-18T15:44:47Z
2019-11-18T13:47:22Z,42.805,6.029,13.2997,4.59992,2470.147,2019-11-18T15:47:50Z
2019-11-18T13:50:26Z,42.805,6.029,13.2998,4.59991,2470.077,2019-11-18T15:50:54Z
2019-11-18T13:53:29Z,42.805,6.029,13.2996,4.59983,2470.063,2019-11-18T15:53:57Z
2019-11-18T13:56:32Z,42.805,6.029,13.3004,4.59984,2470.124,2019-11-18T15:57:00Z
2019-11-18T13:59:35Z,42.805,6.029,13.2996,4.59989,2470.1,2019-11-18T16:00:03Z
2019-11-18T14:02:39Z,42.805,6.029,13.2998,4.60002,2470.04,2019-11-18T16:03:07Z
2019-11-18T14:05:42Z,42.805,6.029,13.2995,4.59998,2470.124,2019-11-18T16:06:10Z
2019-11-18T14:08:45Z,42.805,6.029,13.2995,4.59993,2470.1,2019-11-18T16:09:13Z
2019-11-18T14:11:48Z,42.805,6.029,13.3014,4.60005,2470.1,2019-11-18T16:12:16Z
2019-11-18T14:14:51Z,42.805,6.029,13.3016,4.59997,2470.077,2019-11-18T16:15:19Z
2019-11-18T14:17:55Z,42.805,6.029,13.2985,4.59996,2470.063,2019-11-18T16:18:23Z
2019-11-18T14:20:58Z,42.805,6.029,13.2988,4.60010,2470.077,2019-11-18T16:21:26Z
2019-11-18T14:24:01Z,42.805,6.029,13.3033,4.60001,2470.1,2019-11-18T16:24:29Z
2019-11-18T14:27:04Z,42.805,6.029,13.2993,4.60000,2470.087,2019-11-18T16:27:32Z
2019-11-18T14:30:08Z,42.805,6.029,13.3008,4.60025,2470.077,2019-11-18T16:30:36Z
2019-11-18T14:33:11Z,42.805,6.029,13.3009,4.59987,2470.04,2019-11-18T16:33:39Z
2019-11-18T14:36:14Z,42.805,6.029,13.3016,4.59992,2470.077,2019-11-18T16:36:42Z
2019-11-18T14:39:17Z,42.805,6.029,13.2968,4.60011,2470.124,2019-11-18T16:39:45Z
2019-11-18T14:42:21Z,42.805,6.029,13.2961,4.59995,2470.063,2019-11-18T16:42:49Z
2019-11-18T14:45:24Z,42.805,6.029,13.2967,4.59988,2470.087,2019-11-18T16:45:52Z
2019-11-18T14:48:27Z,42.805,6.029,13.2961,4.59982,2470.1,2019-11-18T16:48:55Z
2019-11-18T14:51:30Z,42.805,6.029,13.2968,4.60002,2470.04,2019-11-18T16:51:58Z
2019-11-18T14:54:33Z,42.805,6.029,13.2964,4.59994,2470.063,2019-11-18T16:55:02Z
2019-11-18T14:57:37Z,42.805,6.029,13.2958,4.59992,2470.1,2019-11-18T16:58:05Z
2019-11-18T15:00:40Z,42.805,6.029,13.2961,4.60004,2470.063,2019-11-18T17:01:08Z
2019-11-18T15:03:43Z,42.805,6.029,13.2956,4.59994,2470.087,2019-11-18T17:04:11Z
2019-11-18T15:06:46Z,42.805,6.029,13.2959,4.59995,2470.077,2019-11-18T17:07:14Z